Flag for Germany Weather past 2 weeks in Dortmund, North Rhine-Westphalia, Germany

Now
34 °F

Partly sunny.


Feels Like: 26 °F
Forecast: 30 / 38 °F
Wind: 10 mph from North

Location: Dortmund / Wickede

Current Time: Dec 29, 2014 at 4:16:19 PM

Latest Report: Dec 29, 2014 at 3:50 PM


Visibility: N/A

Pressure: 30.51 "Hg

Humidity: 75%

Dew point: 27 °F

Location of DortmundLocation

Historic Weather in Dortmund — Graph

°F

Dortmund temperature yesterday

Maximum temperature yesterday: 28 °F (at 1:50 PM)
Minimum temperature yesterday: 21 °F (at 8:50 AM)
Average temperature yesterday: 25 °F

Past Weeks' High & Low Weather Summary

 TemperatureHumidityPressure
High54 °F (Dec 18, 5:20 PM)93% (Dec 16, 6:20 AM)30.48 "Hg (Dec 16, 6:20 AM)
Low21 °F (Dec 28, 8:50 AM)60% (Dec 27, 8:20 PM)29.47 "Hg (Dec 27, 12:20 PM)
Average41 °F83%29.99 "Hg
* Reported Dec 14 2:20 PM — Dec 29 2:50 PM, Dortmund, Weather by CustomWeather, © 2014

Note: Actual official high and low records may vary slightly from our data, if they occured in-between our weather recording intervals... More about our weather records

Advertising

Dortmund weather history for previous 24 hours

 ConditionsComfort  
Time TempWeatherWind HumidityBarometerVisibility
2:50 PM
Dec 29
34 °FPartly sunny.13 mph75%30.48 "HgN/A
2:20 PM34 °FPartly sunny.13 mph75%30.48 "HgN/A
1:50 PM34 °FPartly sunny.14 mph81%30.45 "HgN/A
1:20 PM34 °FPartly sunny.16 mph81%30.45 "HgN/A
12:50 PM36 °FPartly sunny.10 mph75%30.42 "HgN/A
12:20 PM36 °FPartly sunny.8 mph81%30.42 "HgN/A
11:50 AM36 °FScattered clouds.8 mph81%30.42 "HgN/A
11:20 AM36 °FScattered clouds.8 mph87%30.42 "HgN/A
10:50 AM34 °FChilly.6 mph93%30.42 "HgN/A
10:20 AM34 °FScattered clouds.8 mph93%30.39 "HgN/A
9:50 AM34 °FSprinkles. Scattered clouds.8 mph93%30.39 "HgN/A
9:20 AM34 °FScattered clouds.7 mph93%30.36 "HgN/A
8:50 AM32 °FIce fog.9 mph93%30.36 "Hg1 mi
8:20 AM32 °FIce fog.8 mph93%30.36 "Hg1 mi
7:54 AM32 °FLight snow. Passing clouds.8 mph93%30.36 "Hg1 mi
7:50 AM32 °FSnow. Passing clouds.13 mph93%30.36 "Hg1 mi
7:20 AM32 °FIce fog.14 mph93%30.36 "Hg2 mi
6:50 AM30 °FIce fog.15 mph93%30.36 "Hg3 mi
6:20 AM30 °FIce fog.15 mph93%30.36 "Hg3 mi
5:50 AM30 °FLight snow. Passing clouds.16 mph86%30.36 "Hg3 mi
5:20 AM28 °FPassing clouds.18 mph93%30.36 "Hg4 mi
10:50 PM
Dec 28
28 °FPassing clouds.13 mph80%30.48 "HgN/A
10:20 PM28 °FPassing clouds.10 mph80%30.48 "HgN/A
9:50 PM28 °FPassing clouds.9 mph80%30.48 "HgN/A
9:20 PM28 °FPassing clouds.9 mph80%30.48 "HgN/A
8:50 PM27 °FPassing clouds.9 mph86%30.48 "HgN/A
8:20 PM27 °FPassing clouds.8 mph86%30.48 "HgN/A
7:50 PM27 °FPassing clouds.5 mph93%30.48 "HgN/A
7:20 PM23 °FPassing clouds.6 mph93%30.48 "HgN/A
6:50 PM21 °FClear.5 mph86%30.45 "Hg10 mi
6:20 PM25 °FPassing clouds.1 mph86%30.45 "HgN/A
5:50 PM25 °FPassing clouds.3 mph86%30.45 "HgN/A
5:20 PM25 °FClear.3 mph86%30.42 "Hg10 mi
4:50 PM27 °FClear.2 mph74%30.39 "Hg10 mi
4:20 PM27 °FPassing clouds.2 mph74%30.39 "HgN/A
Weather by CustomWeather, © 2014

See weather overviewHow to use our weather pages